Tracking 19625 objects as of 26-May-2019
HD Live streaming from Space Station
objects crossing your sky now
Watch Starlink satellites crossing your sky!

THORAD DELTA 1 DEB

Track THORAD DELTA 1 DEB now!
10-day predictions


NORAD ID: 8163
Int'l Code: 1974-089AD
Perigee: 1,219.9 km
Apogee: 1,833.7 km
Inclination: 102.5 °
Period: 116.4 minutes
Semi major axis: 7897 km
RCS: 0.0599 m2 (small)
Launch date: November 15, 1974
Source: United States (US)
Launch site: AIR FORCE WESTERN TEST RANGE (AFWTR)

Note: This is SATELLITE DEBRIS
aabbcc
Your satellite tracking list
Your tracking list is empty




NASA's NSSDC Master Catalog

Two Line Element Set (TLE):
1  8163U 74089AD  19145.78355883 -.00001180  00000-0 -68224-2 0  9999
2  8163 102.5442  72.4837 0388600  62.3451 301.6492 12.36917708992015
Source of the keplerian elements: AFSPC